#timestamp,LO_Frequency,Hit,StdDev 
1512363615.5,286046999.1,N
1512363635.3,286046999.8,N
1512363655.1,286047000.3,N
1512363675.9,286046998.8,N
1512363695.7,286046995.8,N
1512363715.5,286046999.6,N
1512363735.4,286046998.6,N
1512363755.2,286047000.2,N
1512363775.1,286046996.6,N
1512363776.0,286046996.6,N
1512363795.8,286046992.3,N
1512363815.6,286046995.6,N
1512363835.5,286046991.9,N
1512363855.3,286046992.3,N
1512363875.1,286046991.8,N
1512363895.9,286046991.9,N
1512363915.7,286046988.2,Y
1512363935.6,286046989.0,P
1512363955.4,286046992.7,N
1512363975.2,286046992.2,N
1512363995.1,286046991.5,Y
1512363996.0,286046991.5,P
1512364015.8,286046997.7,P
1512364035.7,286046991.4,P
1512364055.5,286046998.0,N
1512364075.3,286046993.6,N
1512364095.2,286046995.4,N
1512364115.9,286046998.8,N
1512364135.7,286047005.9,N
1512364155.6,286047003.0,N
1512364175.4,286046998.1,N
1512364195.2,286047002.2,N
1512364215.1,286047004.4,N
1512364216.0,286047004.4,N
1512364235.8,286047001.3,N
1512364255.7,286047002.3,N
1512364275.5,286047005.8,N
1512364295.3,286047004.9,N
1512364315.2,286047004.7,N
1512364335.0,286047006.0,N
1512364335.9,286047006.0,N
1512364355.8,286047005.2,N
1512364375.6,286046999.7,N
1512364395.4,286047002.5,N
1512364415.3,286047004.1,N
1512364435.1,286047000.1,N
1512364455.8,286046996.8,N
1512364475.7,286046996.1,N
1512364495.5,286046998.4,N
1512364515.4,286047000.6,N
1512364535.2,286047001.3,N
1512364555.0,286046998.3,N
1512364555.9,286046998.3,N
1512364575.8,286046998.1,N
1512364595.6,286047004.1,N
1512364615.4,286047001.2,N
1512364635.3,286047002.5,N
1512364655.1,286047004.0,N
1512364675.9,286047000.8,N
1512364695.7,286046998.4,N
1512364715.5,286047000.6,N
1512364735.4,286047003.7,N
1512364755.2,286047002.8,N
1512364775.0,286046996.5,N
1512364775.9,286046996.5,N
1512364795.8,286046998.2,N
1512364815.6,286047000.8,N
1512364835.5,286046996.8,N
1512364855.3,286046997.2,N
1512364875.1,286046992.5,N
1512364895.9,286046991.9,N
1512364915.7,286046992.9,N
1512364935.6,286046992.1,N
1512364955.4,286046993.8,N
1512364975.2,286046990.7,N
1512364995.1,286046991.8,N
1512364996.0,286046991.8,N
1512365015.8,286046995.9,N
1512365035.6,286046994.2,N
1512365055.5,286046991.5,N
1512365075.3,286046984.8,Y
1512365095.2,286046992.8,P
1512365115.9,286046989.2,P
1512365135.7,286046990.5,N
1512365155.6,286046991.2,N
1512365175.4,286046988.1,Y
1512365195.2,286046998.1,P
1512365215.1,286047001.2,N
1512365216.0,286047001.2,N
1512365235.8,286047003.0,N
1512365255.7,286047003.7,N
1512365275.5,286046999.0,N
1512365295.3,286046996.7,N
1512365315.2,286047000.7,N
1512365335.0,286047002.4,N
1512365335.9,286047002.4,N
1512365355.8,286047001.5,N
1512365375.6,286047001.5,N
1512365395.4,286047006.0,N
1512365415.3,286047003.8,N
1512365435.1,286047003.6,N
1512365455.8,286047004.4,N
1512365475.7,286047002.5,N
1512365495.5,286047000.7,N
1512365515.4,286046998.9,N
1512365535.2,286046997.9,N
1512365555.0,286046998.2,N
1512365555.9,286046998.2,N
1512365575.8,286046997.0,N
1512365595.6,286046998.2,N
1512365615.4,286046998.7,N
1512365635.3,286046998.8,N
1512365655.1,286047001.2,N
1512365675.9,286047004.5,N
1512365695.7,286047009.1,Y
1512365715.5,286047010.8,P
1512365735.4,286047008.1,N
1512365755.2,286047009.0,N
1512365775.0,286047004.8,N
1512365776.0,286047004.8,N
1512365795.8,286047005.3,N
1512365815.6,286047007.7,N
1512365835.5,286047006.0,N
1512365855.3,286047005.1,N
1512365875.1,286047009.7,Y
1512365895.9,286046999.9,P
1512365915.7,286046999.0,N
1512365935.6,286047002.8,N
1512365955.4,286047002.4,N
1512365975.2,286047001.6,N
1512365995.1,286047002.4,N
1512365996.0,286047002.4,N
1512366015.8,286046998.1,N
1512366035.6,286047004.0,N
1512366055.5,286047006.0,N
1512366075.3,286047007.6,Y
1512366095.2,286047000.1,P
1512366115.9,286046997.8,N
1512366135.7,286046997.2,N
1512366155.6,286046994.3,N
1512366175.4,286046990.6,Y
1512366195.3,286046994.4,P
1512366215.1,286046997.6,N
1512366235.8,286047001.2,N
1512366255.7,286047000.4,N
1512366275.5,286047003.7,N
1512366295.4,286047005.4,N
1512366315.2,286047006.4,N
1512366335.0,286047007.7,N
1512366335.9,286047007.7,N
1512366355.8,286047009.0,N
1512366375.6,286047006.5,N
1512366395.4,286047008.8,N
1512366415.3,286047009.6,N
1512366435.1,286047004.6,N
1512366455.9,286047002.8,N
1512366475.7,286046999.7,N
1512366495.5,286047004.1,N
1512366515.4,286047002.1,N
1512366535.2,286047000.0,N
1512366555.0,286047000.7,N
1512366555.9,286047000.7,N
1512366575.8,286047002.5,N
1512366595.6,286046999.9,N
1512366615.5,286047002.3,N
1512366635.3,286047000.5,N
1512366655.1,286047000.7,N
1512366675.9,286047000.6,N
1512366695.7,286047002.3,N
1512366715.5,286047000.8,N
1512366735.4,286047000.1,N
1512366755.2,286047000.0,N
1512366775.1,286046997.0,N
1512366776.0,286046997.0,N
1512366795.8,286047003.9,N
1512366815.6,286047003.6,N
1512366835.5,286047003.3,N
1512366855.3,286047007.2,N
1512366875.1,286047004.7,N
1512366895.9,286047006.6,N
1512366915.7,286047005.2,N
1512366935.6,286047001.8,N
1512366955.4,286047005.4,N
1512366975.2,286047007.4,N
1512366995.1,286047005.6,N
1512366996.0,286047005.6,N
1512367015.8,286047005.2,N
1512367035.7,286047000.2,N
1512367055.5,286046996.8,N
1512367075.3,286047000.8,N
1512367095.2,286047000.8,N
1512367115.9,286047005.4,N
1512367135.7,286047004.9,N
1512367155.6,286047005.5,N
1512367175.4,286047004.8,N
1512367195.3,286047005.9,N
